Content
SEND FEEDBACK

Daily
Averages
Monthly
Summary
Canada

VANCOUVER, BRITISH COLUMBIA


Home > North America > Canada > British Columbia
Elevation: 7 feet     Latitude: 49 11N     Longitude: 123 10W

WEATHER
 
SELECT A DAY
Number of Records: 252,960;   Date Range: 5/15/97 - 10/20/14
 
SHARE

PRINT THIS DATA

[ ← Previous Day ]
WEATHER ALMANAC - JULY 11, 2013
[ Next Day → ]
[ °C ]   °F
Weather ElementAverageHighLow
Temperature59.3 °F66.2 °F (2:55 pm)53.6 °F (2:35 am)
Dewpoint47.9 °F50 °F (6:15 am)46.4 °F (12:35 am)
Humidity66.7 %82 % (3:35 am)49 % (5:55 pm)
Barometer30.01 in30.05 in (10:55 am)29.93 in (12:35 am)
Wind Speed6.3 mph12.7 mph (1:55 am)
Wind Gust16.1 mph (4:55 pm)
Weather ElementAverage
Visibility8.7 mi
Wind DirectionSSE (145.2 °)

Weather ElementTotal
Precipitation---
Heating Degree Days5.1 (Base 65)
Growing Degree Days9.9 (Base 50)
Averaged from 71 records on July 11, 2013
WEATHER CONDITIONS BREAKOUT
WIND DIRECTION BREAKOUT
WEATHER BY HOUR - JULY 11, 2013
[ °C ]   °F
Local TimeTemperatureDewpointHumidityBarometerVisibilityWind DirectionWind SpeedGust SpeedPrecipitationEventsConditions
12:35 AM55.4 °F46.4 °F72 %29.93 in10.0 miSouth (180°)6.9 mphClear
12:55 AM55.4 °F46.4 °F72 %29.94 in10.0 miSouth (170°)4.6 mphClear
1:15 AM55.4 °F46.4 °F72 %29.94 in10.0 miSSW (210°)6.9 mphClear
1:35 AM55.4 °F46.4 °F72 %29.94 in10.0 miSSW (200°)10.4 mphClear
1:55 AM55.4 °F46.4 °F72 %29.95 in10.0 miSSW (200°)12.7 mphClear
2:15 AM55.4 °F46.4 °F72 %29.95 in10.0 miSSW (200°)11.5 mphScattered Clouds
2:35 AM53.6 °F46.4 °F77 %29.95 in10.0 miSouth (190°)9.2 mphScattered Clouds
2:55 AM53.6 °F46.4 °F77 %29.96 in10.0 miSouth (190°)10.4 mphClear
3:15 AM53.6 °F46.4 °F77 %29.97 in10.0 miSSW (200°)9.2 mphClear
3:35 AM53.6 °F48.2 °F82 %29.97 in9.0 miSSW (200°)10.4 mphClear
3:55 AM53.6 °F48.2 °F82 %29.97 in9.0 miSSW (200°)8.1 mphClear
4:15 AM53.6 °F48.2 °F82 %29.98 in9.0 miSSW (200°)8.1 mphScattered Clouds
4:35 AM53.6 °F48.2 °F82 %29.98 in9.0 miSouth (190°)8.1 mphOvercast
4:55 AM55.4 °F48.2 °F77 %29.99 in10.0 miSouth (180°)6.9 mphRainLight Rain
5:15 AM55.4 °F48.2 °F77 %29.99 in10.0 miSouth (190°)9.2 mphMostly Cloudy
5:35 AM55.4 °F48.2 °F77 %29.99 in10.0 miSouth (190°)6.9 mphMostly Cloudy
5:55 AM55.4 °F48.2 °F77 %30.00 in8.0 miSouth (190°)8.1 mphMostly Cloudy
6:15 AM55.4 °F50.0 °F82 %30.00 in8.0 miSouth (190°)8.1 mphOvercast
6:35 AM55.4 °F48.2 °F77 %30.01 in8.0 miSouth (190°)6.9 mphMostly Cloudy
6:55 AM55.4 °F48.2 °F77 %30.02 in8.0 miSouth (190°)8.1 mphMostly Cloudy
7:15 AM55.4 °F48.2 °F77 %30.02 in9.0 miSSW (200°)8.1 mphMostly Cloudy
7:35 AM57.2 °F48.2 °F72 %30.02 in8.0 miSouth (190°)6.9 mphMostly Cloudy
7:55 AM57.2 °F48.2 °F72 %30.03 in8.0 miSouth (180°)5.8 mphMostly Cloudy
8:15 AM57.2 °F48.2 °F72 %30.03 in9.0 miSSW (200°)5.8 mphOvercast
8:35 AM57.2 °F48.2 °F72 %30.03 in9.0 miSSE (150°)3.5 mphMostly Cloudy
8:55 AM59.0 °F48.2 °F67 %30.03 in8.0 miCalmMostly Cloudy
9:15 AM59.0 °F48.2 °F67 %30.03 in9.0 miCalmMostly Cloudy
9:35 AM59.0 °F48.2 °F67 %30.04 in9.0 miCalmMostly Cloudy
9:55 AM59.0 °F46.4 °F63 %30.04 in9.0 miCalmMostly Cloudy
10:15 AM59.0 °F48.2 °F67 %30.04 in9.0 miCalmMostly Cloudy
10:35 AM59.0 °F48.2 °F67 %30.04 in9.0 miNE (40°)5.8 mphMostly Cloudy
10:55 AM59.0 °F48.2 °F67 %30.05 in9.0 miCalmMostly Cloudy
11:15 AM59.0 °F48.2 °F67 %30.05 in8.0 miCalmOvercast
11:35 AM59.0 °F46.4 °F63 %30.05 in8.0 miCalmOvercast
11:55 AM60.8 °F48.2 °F63 %30.05 in9.0 miNorth (10°)3.5 mphOvercast
12:15 PM60.8 °F48.2 °F63 %30.05 in9.0 miNorthMostly Cloudy
12:35 PM59.0 °F50.0 °F72 %30.05 in8.0 miCalmScattered Clouds
12:55 PM60.8 °F50.0 °F68 %30.05 in8.0 miCalmPartly Cloudy
1:15 PM62.6 °F48.2 °F59 %30.05 in8.0 miEast (80°)4.6 mphClear
1:35 PM64.4 °F48.2 °F56 %30.05 in10.0 miCalmClear
1:55 PM64.4 °F48.2 °F56 %30.05 in9.0 miSSW (200°)5.8 mphPartly Cloudy
2:15 PM64.4 °F48.2 °F56 %30.05 in8.0 miSouth (190°)3.5 mphClear
2:35 PM64.4 °F48.2 °F56 %30.05 in8.0 miCalmClear
2:55 PM66.2 °F48.2 °F52 %30.04 in8.0 miSouth (180°)4.6 mphClear
3:15 PM66.2 °F48.2 °F52 %30.04 in8.0 miSouth (190°)6.9 mphClear
3:35 PM66.2 °F48.2 °F52 %30.04 in7.0 miSouth (190°)8.1 mphClear
3:55 PM66.2 °F48.2 °F52 %30.04 in9.0 miSouth (190°)6.9 mphClear
4:15 PM66.2 °F48.2 °F52 %30.03 in9.0 miSouth (190°)8.1 mphClear
4:35 PM66.2 °F48.2 °F52 %30.02 in8.0 miSouth (180°)6.9 mphClear
4:55 PM66.2 °F48.2 °F52 %30.02 in9.0 miSouth (190°)9.2 mph16.1 mphClear
5:15 PM66.2 °F48.2 °F52 %30.02 in9.0 miSouth (170°)6.9 mphClear
5:35 PM66.2 °F48.2 °F52 %30.02 in8.0 miSouth (190°)10.4 mphClear
5:55 PM66.2 °F46.4 °F49 %30.01 in8.0 miSouth (190°)10.4 mphClear
6:15 PM66.2 °F48.2 °F52 %30.01 in9.0 miSouth (190°)9.2 mphClear
6:35 PM66.2 °F48.2 °F52 %30.00 in8.0 miSouth (190°)9.2 mphClear
6:55 PM64.4 °F48.2 °F56 %30.00 in8.0 miSouth (190°)8.1 mphClear
7:15 PM64.4 °F48.2 °F56 %30.00 in8.0 miSouth (190°)8.1 mphClear
7:35 PM62.6 °F48.2 °F59 %29.99 in8.0 miSSW (200°)9.2 mphClear
7:55 PM62.6 °F48.2 °F59 %29.99 in7.0 miSouth (190°)11.5 mphClear
8:15 PM62.6 °F48.2 °F59 %29.99 in7.0 miSouth (190°)9.2 mphClear
8:35 PM60.8 °F48.2 °F63 %29.99 in8.0 miSouth (190°)10.4 mphClear
8:55 PM59.0 °F48.2 °F67 %29.99 in8.0 miSouth (180°)8.1 mphClear
9:15 PM59.0 °F48.2 °F67 %29.99 in7.0 miSouth (180°)9.2 mphClear
9:35 PM57.2 °F48.2 °F72 %29.99 in9.0 miSouth (180°)9.2 mphClear
9:55 PM57.2 °F48.2 °F72 %29.99 in9.0 miSouth (190°)9.2 mphClear
10:15 PM57.2 °F48.2 °F72 %29.99 in10.0 miCalmClear
10:35 PM55.4 °F48.2 °F77 %29.99 in10.0 miSouth (180°)6.9 mphClear
10:55 PM55.4 °F46.4 °F72 %29.99 in9.0 miSouth (180°)4.6 mphClear
11:15 PM55.4 °F46.4 °F72 %30.00 in9.0 miSouth (180°)5.8 mphClear
11:35 PM55.4 °F46.4 °F72 %29.99 in9.0 miSouth (180°)5.8 mphClear
11:55 PM55.4 °F48.2 °F77 %30.00 in9.0 miSouth (180°)3.5 mphClear
Hourly data recorded from CZBB, located miles away from Vancouver, British Columbia







STORIES FROM OUR PARTNERS